Wind_Speed
14 14 14 14 15 15 16 17 18 18 19 20 20 21 22 23 23 22 21 21 20 20 20 20 20 20 21 21 21 22 22 23 23 23 24 24 24 24 24 24 25 25 26
15 16 16 16 17 17 18 19 19 20 21 22 23 24 25 25 25 25 24 23 23 23 22 22 22 23 23 24 24 25 25 25 25 26 26 26 26 26 26 27 27 28 29
18 18 18 18 19 20 21 22 22 22 23 24 25 27 28 28 28 28 26 26 26 25 25 24 24 25 26 26 27 27 28 28 28 28 29 29 29 29 30 30 30 31 31
21 21 21 22 23 23 24 25 25 24 25 26 27 28 28 28 28 28 28 29 28 27 27 27 27 28 29 29 29 30 31 31 31 32 32 32 33 34 35 35 35 34 34
22 24 24 25 26 26 26 27 27 27 28 28 28 28 28 28 29 30 30 31 31 30 29 29 29 31 32 32 33 33 34 35 35 35 35 36 36 37 38 38 38 38 39
25 26 26 27 28 29 29 29 29 31 31 30 30 29 29 29 30 31 32 32 33 34 33 33 33 33 34 35 36 36 36 37 39 39 39 40 40 41 41 42 43 43 43
26 27 28 28 29 30 30 30 32 32 30 30 29 28 29 30 30 30 31 32 33 34 36 36 37 37 38 38 38 39 41 42 42 43 44 44 45 46 46 47 48 48 48
29 30 31 30 29 30 33 33 34 33 31 31 30 30 31 31 32 32 32 33 34 35 37 38 39 40 40 41 42 43 44 45 46 47 48 49 49 50 50 51 52 52 52
32 32 33 32 31 32 33 33 33 32 33 32 31 32 32 32 33 33 34 35 36 37 38 39 40 42 43 44 45 47 49 49 51 52 52 52 53 54 54 55 55 55 56
35 35 35 35 35 35 36 36 35 35 34 33 33 33 33 34 34 34 36 37 38 39 40 42 43 44 46 48 49 51 52 53 54 55 57 57 57 58 58 59 59 60 61
36 36 36 37 38 37 38 36 35 36 35 35 35 36 36 37 37 38 39 40 41 43 44 45 47 48 50 52 54 55 56 57 58 59 60 60 60 59 60 61 62 63 64
36 37 37 37 38 37 37 37 36 37 37 38 38 39 39 39 40 41 43 43 44 45 48 50 52 54 54 55 57 58 59 60 61 61 61 62 63 63 64 64 64 65 66
37 38 38 38 38 39 39 38 38 38 39 40 40 41 41 42 43 45 46 47 47 49 51 53 55 55 56 57 58 59 59 59 61 62 62 63 64 65 66 67 68 69 69
40 40 41 41 41 41 41 40 40 41 42 42 42 42 44 44 46 47 47 48 49 50 52 53 55 55 56 57 58 58 59 60 60 61 61 62 64 65 65 67 69 70 70
42 42 42 42 42 43 42 41 42 42 43 43 43 44 46 47 48 48 48 49 49 51 52 53 54 56 57 58 58 58 60 61 62 62 62 63 64 64 65 66 67 67 68
43 43 43 43 43 43 43 44 44 43 44 45 45 46 47 47 48 48 47 47 48 49 50 51 53 54 55 56 57 58 58 59 60 61 61 61 62 62 62 63 64 64 64
43 44 44 44 44 44 44 45 45 45 47 47 47 46 46 47 47 46 46 46 47 48 49 50 51 51 51 52 53 54 54 55 56 57 57 57 57 57 57 57 57 57 56
43 44 44 45 45 45 45 46 46 45 46 45 45 45 45 45 46 47 47 47 48 48 49 49 50 50 50 51 50 51 52 53 53 54 53 52 51 51 50 50 50 50 50
43 43 43 43 43 44 44 43 43 43 44 43 43 43 44 45 46 46 46 46 47 47 47 47 46 46 46 47 47 47 48 48 48 47 47 46 45 45 45 44 44 44 45
42 42 41 41 41 42 41 41 41 41 42 42 42 42 42 42 42 42 43 43 43 43 42 42 42 41 41 41 41 41 41 41 40 39 39 39 39 40 40 40 40 40 40
40 40 39 39 39 39 39 38 38 38 38 39 38 38 38 38 39 39 39 39 38 37 37 36 36 36 36 36 36 36 36 35 34 34 34 34 33 33 34 35 35 35 35
36 36 36 36 36 36 36 36 36 36 36 36 36 36 35 35 35 34 33 32 32 32 32 32 32 32 32 32 32 32 31 30 30 30 30 31 30 29 29 30 30 30 30
33 33 33 33 33 34 34 34 34 34 34 33 33 32 31 30 31 31 30 29 29 30 30 29 29 29 29 29 29 28 28 28 27 27 27 27 27 27 26 26 25 26 26
29 30 30 31 31 31 32 32 32 31 31 30 29 28 28 29 29 28 28 28 28 28 27 28 28 27 27 27 26 26 25 25 25 25 24 24 24 23 23 23 22 22 23
27 28 28 28 29 29 30 29 28 27 26 25 26 26 26 27 26 26 26 26 26 26 25 24 24 23 23 23 23 23 23 22 22 22 21 21 20 20 20 20 19 20 20
26 26 26 26 26 26 25 24 24 23 23 24 24 24 24 24 24 24 23 23 23 22 21 20 19 19 20 20 20 20 20 19 19 19 19 18 18 18 18 18 18 18 18
Wind_Direction
270 273 276 279 281 283 287 288 290 289 289 289 289 289 289 290 290 293 293 291 292 291 290 289 286 285 283 282 280 280 278 277 276 276 275 274 274 274 274 272 271 271 270
272 276 278 280 282 286 290 293 294 292 290 287 287 287 286 286 288 288 289 288 288 288 288 286 286 285 283 282 280 280 279 277 276 276 276 275 275 274 274 274 273 272 272
274 275 277 279 280 284 288 292 294 293 293 291 289 287 286 284 285 285 286 285 285 287 285 283 282 282 283 282 280 280 278 277 276 275 275 274 274 273 274 275 273 273 273
275 276 279 281 281 283 286 288 290 292 292 291 289 288 287 284 284 283 284 284 284 284 283 283 280 281 281 280 279 279 278 277 276 275 275 275 274 274 274 275 274 273 273
281 282 284 286 284 284 285 287 288 290 291 292 288 286 286 283 281 281 282 283 283 283 281 281 280 281 281 280 278 278 278 277 276 275 275 275 275 275 274 274 273 273 274
285 287 287 286 286 287 288 289 289 289 290 289 286 285 285 285 284 282 281 281 280 281 281 280 280 281 281 280 278 278 277 277 276 275 275 275 275 275 275 274 274 274 274
286 288 290 290 289 289 290 290 290 291 291 290 289 288 290 289 287 284 281 280 281 281 280 280 280 280 280 280 278 277 277 276 275 274 275 275 275 275 276 276 275 274 273
286 288 290 292 293 294 293 291 293 293 291 291 292 292 292 291 289 287 283 283 284 282 282 281 279 279 279 279 278 278 278 277 276 276 275 275 274 275 275 275 274 274 274
285 288 290 293 296 297 296 295 294 294 294 292 291 292 293 291 290 287 284 283 283 282 282 281 279 279 279 279 278 278 277 277 275 275 275 274 274 275 275 275 275 275 275
285 287 290 290 292 293 294 294 293 294 295 293 292 293 294 293 291 289 287 284 283 282 281 280 279 279 279 279 278 277 277 276 275 275 275 274 275 275 275 275 275 275 275
289 290 291 290 291 292 294 294 296 295 295 295 294 293 292 291 290 289 287 284 283 282 280 279 278 278 279 279 278 278 277 276 275 275 274 274 274 275 275 275 275 275 275
289 290 291 291 290 292 295 295 295 296 295 294 293 292 290 289 289 288 288 286 284 282 281 280 279 278 278 277 277 277 276 276 276 275 275 274 274 274 274 274 273 273 274
289 291 292 294 292 292 293 293 294 296 295 293 293 293 292 290 288 287 286 285 283 283 281 280 279 279 278 277 276 276 276 276 276 276 275 275 275 275 275 274 274 274 274
289 290 290 292 293 293 292 292 293 292 292 292 292 291 291 290 288 287 285 284 283 283 282 281 280 280 279 279 278 277 276 276 275 275 276 276 276 276 275 275 275 275 275
289 290 290 291 291 291 290 291 291 290 291 290 289 289 289 288 287 284 283 282 283 283 284 283 283 282 281 281 280 279 278 278 278 278 278 278 278 277 277 276 276 276 275
287 288 288 288 289 289 288 289 290 291 291 289 288 289 288 288 287 285 283 284 284 285 285 285 286 285 283 282 282 281 281 281 279 279 279 280 280 279 279 280 279 278 277
285 285 285 286 288 288 288 288 288 289 290 289 289 288 288 287 287 285 286 288 288 288 287 288 288 287 286 285 284 284 283 282 281 281 281 281 281 281 282 283 283 282 280
283 284 284 285 287 287 287 287 287 288 289 288 288 287 286 287 288 288 289 289 289 289 289 289 288 288 288 288 287 286 286 285 285 284 284 284 284 284 285 286 286 284 283
283 284 284 285 286 286 286 287 287 288 289 289 289 289 288 289 290 290 290 290 291 291 291 290 290 290 291 291 291 290 290 289 288 288 287 287 286 286 287 288 288 287 286
284 285 286 286 286 286 287 289 290 291 291 291 291 291 290 292 293 293 294 294 294 294 294 294 294 295 295 295 296 296 295 294 293 292 292 291 290 289 289 290 290 289 288
284 285 286 288 289 290 292 292 292 292 292 292 292 293 293 295 296 296 297 298 298 298 298 298 298 299 299 300 300 300 300 299 298 297 296 296 296 295 294 294 294 294 292
285 286 287 289 291 293 293 292 292 294 294 294 295 296 297 297 298 299 300 302 303 302 302 302 303 303 304 305 305 305 305 304 303 302 301 300 300 299 298 298 298 298 296
286 287 288 289 292 293 293 293 295 296 296 296 296 297 298 299 300 301 303 305 305 305 305 305 306 308 309 310 311 311 311 310 309 308 308 308 307 307 306 306 304 303 303
287 289 290 292 293 293 294 295 296 297 297 297 298 299 301 303 304 305 306 307 307 307 306 307 309 311 313 314 315 317 317 317 316 316 315 315 314 314 313 313 311 310 309
294 295 296 296 296 296 297 298 299 300 301 302 303 304 305 306 306 306 307 307 308 309 310 311 314 316 319 321 322 323 323 323 324 324 324 324 323 323 322 322 322 321 319
296 298 298 298 299 300 301 301 302 303 304 305 305 306 307 308 309 309 310 311 313 315 317 320 323 327 329 331 332 331 332 333 333 333 334 334 334 334 335 334 333 331 329
Height
5885 5885 5885 5885 5885 5885 5884 5884 5883 5882 5882 5881 5881 5880 5879 5878 5878 5878 5877 5876 5875 5874 5873 5873 5872 5872 5871 5870 5870 5869 5869 5869 5868 5868 5868 5867 5867 5867 5867 5866 5866 5866 5866
5883 5883 5883 5883 5882 5881 5881 5880 5879 5879 5878 5877 5877 5876 5875 5874 5873 5873 5872 5871 5870 5869 5869 5868 5867 5867 5866 5865 5865 5864 5864 5864 5863 5863 5862 5861 5861 5861 5860 5860 5860 5860 5860
5879 5879 5880 5879 5879 5878 5877 5877 5876 5875 5874 5873 5872 5871 5870 5869 5868 5867 5866 5866 5865 5864 5863 5862 5862 5861 5860 5860 5859 5858 5858 5857 5857 5856 5856 5855 5854 5854 5854 5853 5853 5852 5852
5875 5875 5875 5875 5875 5874 5873 5872 5871 5870 5869 5868 5867 5865 5864 5863 5862 5861 5860 5860 5859 5859 5857 5856 5856 5855 5854 5853 5853 5852 5851 5851 5850 5849 5848 5848 5847 5847 5846 5845 5845 5844 5844
5870 5870 5870 5870 5869 5869 5868 5867 5866 5865 5864 5862 5860 5859 5858 5857 5856 5855 5853 5853 5852 5852 5851 5850 5848 5848 5847 5846 5845 5844 5844 5843 5842 5841 5840 5839 5839 5838 5837 5837 5836 5835 5835
5865 5865 5864 5864 5863 5863 5862 5861 5860 5859 5857 5856 5854 5853 5852 5851 5850 5848 5846 5846 5845 5844 5843 5843 5841 5840 5839 5838 5837 5836 5835 5834 5833 5832 5831 5830 5829 5828 5827 5826 5826 5825 5825
5860 5859 5858 5858 5857 5856 5855 5855 5853 5852 5851 5849 5848 5847 5846 5845 5844 5842 5841 5839 5838 5836 5835 5834 5833 5832 5831 5829 5828 5827 5826 5825 5823 5822 5821 5819 5818 5817 5816 5815 5814 5813 5813
5854 5853 5852 5851 5850 5849 5849 5848 5846 5845 5844 5843 5841 5840 5839 5839 5837 5835 5834 5832 5830 5828 5827 5825 5824 5823 5821 5820 5819 5817 5815 5813 5812 5810 5809 5808 5806 5805 5803 5802 5801 5800 5800
5847 5846 5846 5844 5844 5843 5842 5841 5839 5838 5837 5836 5834 5833 5832 5830 5829 5827 5825 5824 5822 5820 5818 5816 5814 5813 5811 5809 5808 5806 5804 5801 5800 5798 5796 5795 5793 5792 5790 5789 5787 5786 5785
5841 5839 5838 5837 5836 5836 5835 5834 5832 5831 5829 5829 5827 5825 5823 5821 5820 5818 5817 5814 5812 5810 5808 5806 5804 5802 5799 5797 5795 5793 5790 5788 5785 5784 5782 5780 5779 5777 5775 5774 5772 5771 5769
5833 5832 5831 5830 5828 5828 5827 5825 5824 5822 5821 5820 5818 5817 5815 5812 5810 5808 5807 5805 5802 5800 5797 5795 5792 5790 5787 5785 5782 5780 5777 5773 5771 5769 5767 5765 5763 5761 5759 5757 5755 5754 5752
5825 5824 5823 5822 5820 5819 5818 5816 5815 5813 5812 5810 5808 5806 5804 5802 5800 5798 5796 5793 5791 5788 5785 5783 5780 5777 5774 5771 5768 5764 5761 5757 5755 5753 5750 5748 5746 5744 5743 5741 5738 5736 5733
5817 5816 5814 5813 5812 5810 5809 5808 5806 5804 5802 5800 5798 5796 5793 5791 5789 5787 5784 5781 5779 5775 5772 5768 5765 5762 5759 5755 5752 5748 5745 5742 5739 5736 5733 5730 5728 5726 5724 5722 5719 5717 5715
5808 5807 5806 5804 5803 5801 5800 5798 5796 5794 5792 5790 5787 5784 5782 5780 5777 5774 5772 5769 5766 5762 5758 5754 5750 5747 5743 5739 5736 5732 5729 5725 5722 5718 5715 5712 5710 5707 5705 5702 5700 5697 5695
5799 5798 5796 5795 5793 5791 5789 5787 5785 5783 5781 5779 5776 5773 5771 5768 5765 5762 5759 5756 5753 5749 5744 5739 5735 5731 5728 5724 5720 5716 5711 5708 5705 5701 5698 5695 5692 5689 5686 5683 5680 5677 5675
5789 5788 5786 5785 5783 5781 5779 5776 5774 5771 5770 5768 5765 5762 5759 5755 5752 5749 5746 5742 5739 5735 5730 5725 5720 5716 5712 5707 5703 5699 5695 5691 5687 5684 5680 5677 5674 5671 5667 5664 5661 5658 5655
5780 5778 5777 5775 5773 5771 5769 5766 5764 5761 5758 5756 5753 5750 5746 5743 5740 5737 5733 5729 5725 5721 5717 5711 5706 5701 5696 5692 5687 5683 5678 5675 5671 5667 5664 5661 5657 5654 5650 5647 5644 5641 5638
5770 5768 5766 5764 5762 5760 5758 5756 5753 5750 5747 5744 5741 5737 5734 5731 5727 5724 5720 5716 5711 5707 5702 5697 5692 5687 5682 5677 5673 5668 5663 5659 5656 5652 5649 5646 5642 5639 5635 5632 5629 5626 5623
5759 5757 5755 5753 5751 5749 5747 5744 5741 5738 5735 5732 5729 5726 5723 5719 5715 5711 5707 5703 5698 5693 5688 5684 5679 5674 5669 5664 5660 5655 5650 5646 5642 5639 5636 5633 5630 5626 5623 5620 5616 5613 5610
5749 5747 5745 5743 5741 5739 5736 5733 5730 5727 5724 5721 5718 5714 5711 5707 5703 5698 5694 5690 5685 5680 5676 5671 5667 5662 5658 5653 5648 5644 5639 5635 5630 5627 5624 5621 5618 5615 5612 5609 5606 5602 5599
5739 5737 5735 5733 5731 5728 5725 5723 5720 5717 5714 5710 5707 5703 5700 5696 5691 5687 5683 5678 5674 5670 5665 5661 5657 5653 5648 5644 5639 5634 5630 5626 5622 5618 5615 5611 5608 5605 5602 5599 5595 5592 5589
5730 5728 5726 5724 5721 5719 5716 5713 5710 5707 5704 5701 5697 5693 5690 5686 5681 5678 5673 5669 5665 5661 5657 5653 5649 5644 5640 5636 5631 5627 5622 5619 5615 5612 5608 5604 5601 5597 5594 5591 5588 5584 5581
5721 5719 5717 5715 5712 5710 5707 5704 5701 5698 5694 5691 5688 5684 5681 5677 5673 5670 5666 5661 5658 5654 5650 5646 5642 5637 5633 5629 5624 5620 5616 5612 5608 5605 5601 5598 5594 5591 5587 5584 5581 5578 5575
5712 5710 5708 5706 5704 5701 5698 5695 5692 5689 5686 5683 5679 5676 5673 5669 5666 5662 5659 5655 5651 5647 5643 5639 5635 5631 5626 5622 5618 5614 5610 5607 5603 5599 5596 5593 5589 5586 5582 5579 5576 5573 5569
5705 5703 5700 5698 5695 5693 5690 5687 5684 5681 5678 5676 5672 5669 5666 5663 5659 5655 5652 5649 5645 5641 5637 5633 5629 5625 5621 5617 5613 5610 5606 5603 5599 5595 5592 5588 5585 5582 5579 5575 5572 5568 5565
5698 5696 5693 5691 5688 5686 5683 5680 5678 5675 5672 5669 5666 5663 5660 5656 5653 5649 5646 5643 5639 5635 5632 5628 5625 5621 5617 5614 5610 5607 5603 5600 5596 5593 5589 5586 5582 5579 5576 5573 5569 5565 5561